Theta_e
298 299 300 300 301 302 302 303 304 305 305 305 305 305 304 303 302 302 306 310 311 309 308 306 305 306 310 316 318 319 319 319 319 319 318 318 317 318 318 317 317 317 317 317 317 317 316 316 316 316 315 316 316 316 316 315 315 315 314 314 314 314 314 314 314 314 314 314 314 314 314 314 314 314 314 314 314 313 313 314 314 314 314 315 315 315
298 299 300 300 301 301 302 302 303 304 305 305 305 305 304 301 301 302 305 307 308 308 307 305 303 303 305 312 317 319 320 320 320 319 318 318 318 318 318 317 317 317 317 317 317 316 316 316 316 315 315 315 316 316 316 315 315 315 315 314 314 314 314 314 314 314 313 313 313 313 313 313 313 313 313 313 313 312 312 312 313 313 314 314 314 314
299 299 299 300 301 301 302 302 303 304 305 306 306 306 304 302 301 302 304 305 306 305 305 304 304 303 303 309 314 318 320 320 320 320 319 318 318 318 318 317 317 317 317 317 317 316 316 315 315 315 315 315 316 315 316 315 315 315 315 315 315 314 314 314 314 314 314 313 313 313 313 313 313 312 312 312 312 312 312 312 312 312 313 313 313 313
299 299 299 299 300 300 301 302 302 304 305 306 306 306 305 303 303 303 304 304 304 303 301 301 301 302 304 307 312 317 319 320 320 319 319 319 318 318 318 318 317 317 317 317 317 316 316 316 315 315 315 315 315 315 315 315 315 315 315 315 315 314 315 314 314 314 314 313 313 313 313 312 313 312 312 312 312 311 312 312 312 312 312 313 313 313
300 300 299 299 300 300 300 301 302 303 304 305 305 306 305 304 303 303 303 303 303 301 300 299 299 300 303 305 310 316 319 320 320 319 319 319 319 318 318 318 317 317 317 317 316 316 316 315 315 315 315 315 315 315 315 315 315 315 315 314 314 314 314 314 314 314 314 314 313 313 313 313 312 312 312 312 311 312 311 312 312 312 312 312 312 312
300 300 299 299 301 302 302 301 302 303 303 303 303 304 304 304 303 303 303 302 302 301 300 299 298 299 300 304 309 315 318 319 319 319 319 319 319 318 318 318 318 317 317 317 316 316 315 315 315 315 315 315 315 315 315 315 315 315 314 314 314 314 314 314 314 314 314 314 314 313 313 313 312 312 312 312 312 312 311 312 312 312 312 312 312 312
299 298 298 298 299 301 302 301 302 302 303 302 302 302 302 302 303 302 302 302 302 301 301 300 299 298 298 303 309 314 317 319 320 320 320 319 319 318 317 316 316 316 316 316 316 316 316 315 315 315 315 315 315 315 316 315 315 315 314 314 313 313 313 313 313 313 313 313 313 313 313 313 312 312 312 312 312 311 311 312 312 312 312 312 312 312
298 298 297 297 298 299 300 301 301 301 302 303 303 302 302 302 302 302 301 301 301 301 301 300 299 298 297 300 304 309 311 313 313 313 314 314 314 314 313 314 314 314 315 315 315 315 315 314 314 314 314 314 314 314 315 314 314 313 313 312 312 312 313 313 313 313 313 313 313 313 313 313 312 312 312 312 312 312 311 311 312 311 312 312 312 312
298 298 297 296 297 299 300 301 300 299 299 302 303 304 304 303 303 302 302 302 302 301 301 300 299 298 297 297 299 302 305 305 303 302 303 303 304 306 310 311 312 313 313 312 312 312 311 311 310 310 310 310 310 310 310 311 311 311 311 311 311 311 312 312 312 312 313 313 313 313 313 313 312 312 312 312 312 312 311 311 312 311 311 311 311 311
297 298 298 297 297 299 301 301 300 298 297 299 301 303 304 304 303 303 302 303 302 301 300 300 300 299 298 297 297 298 302 303 304 304 303 303 304 306 308 309 309 309 309 309 308 308 307 307 307 306 306 306 306 306 307 307 308 308 308 308 309 309 309 310 311 311 312 312 312 313 312 313 313 313 312 312 312 312 312 311 311 311 311 311 311 311
297 297 297 298 298 299 300 300 299 297 297 298 299 300 302 302 302 302 301 302 301 301 300 299 299 298 298 297 297 297 298 299 301 302 304 305 306 307 306 306 306 306 306 306 306 305 305 305 305 305 305 305 304 305 305 305 306 306 306 307 307 308 308 308 309 310 310 311 311 312 312 313 313 313 313 312 312 312 312 311 311 311 310 311 310 311
297 297 297 297 297 298 299 298 298 298 298 299 299 299 299 298 299 300 302 302 301 301 300 299 298 297 296 296 296 296 295 295 295 296 296 298 299 300 301 301 302 303 302 303 303 304 304 304 304 303 303 303 304 304 304 304 305 306 306 306 307 307 308 308 308 309 309 310 310 311 312 312 312 312 313 312 312 312 311 311 311 310 310 310 310 310
296 297 298 298 298 298 297 298 298 298 298 298 298 297 297 297 297 298 301 301 301 300 299 298 298 297 296 295 295 294 294 294 293 293 293 293 293 294 294 294 294 294 295 295 296 298 301 302 302 302 302 302 303 303 305 305 306 306 306 307 307 307 308 308 308 308 309 309 310 310 310 311 311 311 311 311 311 311 310 310 310 310 310 310 310 310
295 296 297 297 296 296 296 297 297 297 297 297 297 297 297 296 296 296 298 299 299 298 298 298 297 296 295 294 294 293 293 293 292 292 292 292 292 292 292 292 292 291 291 291 291 293 297 297 296 297 300 301 302 303 304 305 306 307 307 307 307 307 307 307 307 307 307 308 308 308 308 308 308 309 309 309 309 309 309 309 309 309 309 309 310 310
294 295 295 295 294 294 295 295 295 295 295 296 296 296 295 295 295 295 297 296 296 296 297 296 295 294 293 293 293 292 292 292 291 291 291 291 291 291 290 291 291 291 290 290 290 291 294 293 292 292 294 298 300 302 304 305 306 306 306 306 305 305 305 306 305 305 305 305 306 306 306 306 306 306 307 307 307 307 308 308 308 309 309 309 310 310
294 294 294 293 293 293 293 294 294 294 294 295 295 296 295 295 295 295 295 295 295 296 296 295 294 294 294 294 294 293 292 291 291 291 290 291 291 290 289 290 290 290 290 290 290 290 290 290 290 291 293 298 302 305 306 305 305 305 304 304 304 304 304 303 303 303 303 303 303 303 304 304 304 304 305 305 306 306 307 307 307 308 308 309 309 310
293 293 293 293 292 292 292 293 293 293 293 294 294 294 294 295 295 295 295 296 296 296 296 295 294 293 293 293 293 293 292 291 290 289 289 289 290 290 289 289 289 289 289 289 289 289 289 289 290 291 294 301 304 305 305 304 304 303 303 303 302 302 302 302 302 302 301 302 302 302 302 302 303 303 303 304 304 305 305 306 306 307 308 308 308 309
292 292 292 292 292 292 292 292 292 292 292 293 293 293 293 293 294 294 294 294 295 295 295 295 294 293 292 292 292 292 292 291 291 290 289 289 289 289 288 289 289 289 288 289 289 289 289 289 289 292 296 302 305 304 304 303 303 302 302 301 301 301 301 301 301 301 301 301 301 301 301 301 302 302 302 303 303 303 304 305 305 306 307 307 308 308
290 291 291 291 291 291 291 291 291 291 291 292 292 292 292 292 292 293 292 292 292 292 292 291 291 291 292 291 291 292 291 291 291 290 289 289 289 288 288 288 289 289 288 288 289 289 288 288 291 296 302 303 304 303 303 302 302 301 301 301 301 300 300 300 300 300 300 300 300 300 300 301 301 301 302 302 302 303 303 304 304 305 305 306 306 307
288 289 289 290 290 290 289 290 290 290 291 291 291 291 291 291 291 291 291 291 290 290 290 289 289 289 290 290 291 291 291 291 290 289 288 288 288 288 287 288 288 288 287 288 288 288 288 287 289 293 301 302 303 303 302 302 301 301 301 300 300 299 299 299 299 299 299 299 299 300 300 300 300 300 301 301 301 301 302 302 303 303 304 304 305 305
287 287 288 289 290 289 289 289 290 291 291 291 291 290 290 290 290 290 290 290 290 290 290 289 289 289 290 290 291 292 291 291 290 288 287 287 287 287 287 287 287 287 287 288 288 287 287 286 286 289 298 301 302 302 301 300 300 300 300 299 299 299 298 298 298 298 298 298 298 299 299 299 299 300 300 300 300 300 301 301 301 302 302 303 303 304
287 287 288 289 289 289 289 289 290 291 292 291 290 289 289 289 289 289 289 289 289 289 289 289 289 290 291 291 291 292 290 290 289 288 286 286 286 287 287 286 286 286 287 287 287 286 285 285 286 289 297 301 302 301 300 300 299 299 299 298 298 298 297 297 297 297 297 297 297 298 298 298 298 298 299 299 299 299 299 300 300 301 301 302 302 303
287 287 288 289 289 289 290 290 291 292 292 291 291 290 290 289 289 289 289 289 289 289 289 289 290 290 290 290 290 290 290 289 288 287 286 286 286 286 286 285 286 286 286 286 285 285 284 285 286 289 295 299 300 300 299 298 298 298 298 297 297 296 296 296 296 296 296 296 297 297 297 297 297 298 298 298 298 299 299 299 299 300 300 301 301 301
288 288 289 289 290 290 291 291 291 291 292 291 291 291 291 291 291 291 290 290 290 289 289 289 289 289 289 289 289 288 287 287 287 287 287 286 285 285 285 284 285 285 286 285 284 284 284 285 286 288 291 296 298 298 298 297 297 296 296 296 296 295 295 295 295 295 295 296 296 296 296 296 297 297 297 297 297 298 298 298 299 299 300 300 300 300
289 289 290 290 290 291 291 291 291 292 292 291 291 291 291 291 291 291 291 290 290 289 289 288 287 287 287 288 288 287 286 286 286 287 286 285 284 283 283 283 284 284 284 284 283 283 284 285 285 286 286 290 294 296 296 296 296 295 295 295 294 294 294 294 294 294 295 295 295 295 295 295 296 296 296 296 297 297 297 297 298 298 298 299 299 299
290 291 291 292 292 292 293 293 293 293 293 292 292 291 291 290 290 290 289 289 289 288 287 285 285 284 285 285 286 286 286 286 286 285 284 283 282 282 282 283 283 283 283 283 284 285 285 285 285 284 284 286 290 294 295 294 294 294 293 293 293 293 293 293 294 294 294 294 294 294 295 295 295 295 295 296 296 296 296 297 297 297 298 298 298 298
291 291 291 292 292 293 293 293 293 293 293 293 292 291 290 289 288 287 286 286 287 287 286 284 283 283 283 284 284 284 285 286 285 284 283 282 282 281 282 282 282 282 283 283 283 285 287 286 284 283 283 283 286 290 292 293 293 293 292 292 292 292 292 293 293 293 293 293 294 294 294 294 294 295 295 295 295 295 296 296 296 297 297 297 296 296
289 290 290 290 291 291 292 292 292 292 292 291 291 290 289 287 285 284 283 284 285 285 285 283 282 282 283 283 283 283 283 284 285 284 283 282 282 281 281 282 282 282 282 282 283 284 286 284 283 282 282 283 284 286 289 291 291 291 291 291 291 291 292 292 292 293 293 293 293 293 293 294 294 294 294 294 294 295 295 295 295 296 296 295 294 293
287 288 288 288 289 289 289 289 289 290 290 289 288 287 286 284 282 282 281 282 283 284 283 283 282 282 282 281 281 282 282 283 284 284 284 283 281 280 281 281 281 281 281 281 281 281 282 281 281 280 280 283 283 283 285 287 288 288 289 290 290 291 291 292 292 292 292 292 292 293 293 293 293 293 293 294 294 294 294 295 295 295 294 293 292 291
283 283 284 284 285 285 285 285 285 287 287 287 287 286 284 282 281 281 281 282 282 282 281 281 281 281 281 280 281 281 280 282 283 284 284 282 280 280 280 280 280 280 280 279 278 278 279 280 280 280 280 283 283 282 282 283 284 285 285 287 288 289 291 291 291 291 292 292 292 292 292 292 292 293 293 293 293 294 294 294 294 293 292 290 290 290
279 280 279 280 281 281 281 281 282 283 284 284 284 284 283 282 281 281 281 281 281 280 280 280 280 280 280 280 280 279 279 280 283 285 283 281 280 279 279 279 279 279 279 277 276 276 276 278 280 281 280 281 281 282 282 282 282 282 282 283 285 287 290 290 291 291 291 291 291 291 291 291 292 292 292 292 293 293 293 294 294 293 291 290 289 289
278 279 278 279 279 279 280 280 280 280 280 281 281 281 282 282 281 281 280 280 280 280 279 279 279 279 279 279 279 279 278 279 282 284 283 280 279 278 278 278 278 278 278 277 276 276 275 276 278 279 279 279 280 280 281 282 282 281 282 282 283 284 288 289 290 290 290 290 290 291 291 291 291 291 291 292 292 293 293 293 293 293 290 289 288 289
278 278 278 278 278 278 278 278 278 279 279 279 279 280 280 280 281 281 280 280 280 280 279 279 278 278 278 278 278 278 278 279 282 284 283 280 279 278 277 277 276 276 277 277 276 275 275 275 276 278 278 279 279 279 280 282 282 282 281 281 281 282 286 287 287 287 288 289 289 289 290 290 291 291 291 291 292 292 292 293 293 292 291 289 288 288
278 277 277 277 277 277 277 277 277 277 278 278 278 279 279 279 279 280 280 280 280 280 279 279 278 278 277 277 277 277 278 279 282 284 284 280 278 277 277 276 276 275 275 275 275 275 275 275 275 276 278 278 279 279 279 280 281 281 280 280 281 281 283 284 284 285 285 286 286 286 287 288 289 290 290 291 291 291 292 292 292 292 291 290 288 287
276 276 276 276 276 276 276 276 276 276 277 277 277 278 278 278 278 278 279 279 279 279 279 279 279 278 278 277 277 277 277 278 281 283 284 281 279 277 277 276 276 275 275 274 274 274 274 274 275 276 277 277 278 278 279 279 279 280 279 280 281 281 281 281 282 283 284 284 284 283 284 285 286 287 288 290 290 290 291 291 291 291 291 291 290 289
275 275 275 275 275 275 275 275 275 276 276 276 276 277 277 277 277 277 277 277 278 278 279 279 279 279 278 278 277 277 277 278 279 281 283 280 279 278 277 276 276 276 276 275 274 273 273 274 276 277 277 276 276 277 278 278 279 279 280 280 281 281 280 281 281 281 281 282 282 283 283 284 284 285 286 288 289 290 290 290 290 290 291 291 291 290
274 274 274 274 274 274 274 274 275 275 275 275 276 276 276 276 276 276 276 275 276 276 278 278 278 279 280 279 278 278 278 278 278 279 280 279 279 278 277 277 278 278 277 276 276 276 276 275 276 276 276 275 275 275 277 278 278 278 279 280 280 280 280 280 281 281 280 281 282 283 283 283 284 285 286 288 288 288 289 289 290 290 290 291 291 291
273 273 273 273 273 273 273 273 274 274 275 275 275 275 275 274 274 274 275 274 274 274 275 276 276 277 279 280 279 278 277 277 276 276 277 277 277 278 278 278 279 279 279 279 279 278 277 276 276 275 275 275 276 277 278 278 278 278 278 279 280 280 279 279 280 280 280 281 282 283 284 283 283 283 284 285 285 285 285 285 287 288 289 290 290 291
272 272 272 273 273 273 273 273 273 274 274 274 275 275 274 275 274 274 274 274 274 274 273 274 274 275 275 277 278 279 278 277 276 276 276 275 276 277 278 277 277 278 279 280 279 279 278 277 277 276 276 276 276 277 278 277 277 277 278 279 279 279 279 279 280 281 281 281 281 282 283 282 282 282 282 283 283 283 283 283 285 286 286 286 287 289
271 271 272 273 273 273 272 273 273 273 273 274 274 275 275 275 274 274 274 274 275 274 273 273 274 274 275 276 277 277 277 276 276 277 275 274 274 275 277 277 277 278 279 279 279 279 278 278 278 278 278 278 278 278 277 276 277 278 279 278 278 278 280 280 280 279 279 279 279 280 281 281 281 281 282 282 281 281 282 282 283 284 285 284 284 284
271 271 271 272 273 273 273 273 273 273 273 273 273 273 273 273 273 273 274 274 274 274 274 274 274 273 273 272 272 273 274 274 275 276 274 273 273 274 276 277 277 277 278 278 278 279 278 279 279 279 279 279 279 279 279 278 279 281 282 280 279 279 280 281 280 279 278 278 278 279 281 281 282 282 281 282 282 282 282 282 282 283 285 284 282 282
272 271 271 271 272 272 272 272 273 273 273 272 271 271 272 272 272 272 272 272 272 272 273 273 272 271 271 271 272 272 272 273 274 275 274 273 272 273 274 275 277 277 277 276 276 277 279 280 280 280 280 280 279 279 279 280 281 282 282 281 280 279 280 280 279 277 277 278 279 280 281 281 281 280 281 281 281 282 283 282 283 285 286 284 283 282
271 271 270 270 270 271 272 272 273 273 272 271 271 271 271 271 271 272 272 270 270 272 273 272 271 270 269 269 270 271 272 271 272 273 274 272 272 272 273 274 275 276 276 275 274 274 276 277 277 277 278 278 279 279 279 279 279 279 279 279 278 277 276 276 276 277 277 278 279 279 279 280 280 280 281 281 281 282 282 284 286 287 287 284 283 283
270 270 269 269 270 271 271 271 271 270 270 270 270 270 270 270 271 272 272 270 271 272 271 270 269 268 268 268 268 269 270 271 271 272 273 276 276 275 273 273 273 274 275 274 273 273 273 273 274 275 276 276 275 275 275 275 275 276 276 277 277 276 275 276 276 277 277 278 279 279 278 279 280 280 280 281 281 281 281 282 282 282 284 284 283 283
269 269 269 269 270 270 270 269 269 269 269 270 269 269 269 270 271 272 271 271 271 271 270 270 270 268 267 267 268 269 269 269 270 271 272 276 278 278 275 273 273 273 273 273 273 273 272 272 272 273 275 275 274 273 273 274 274 275 277 278 278 277 276 277 277 277 277 277 278 278 278 278 279 279 279 279 279 280 280 281 281 281 281 282 282 282
267 267 267 267 267 268 268 268 268 267 267 268 269 269 269 269 269 270 271 271 271 270 270 270 270 269 268 268 268 267 267 267 269 270 271 272 272 273 274 275 275 274 273 273 273 273 273 272 272 272 273 273 273 272 272 272 273 273 274 276 276 275 275 276 276 276 277 277 277 277 278 277 277 277 278 278 278 278 279 279 279 280 280 280 281 281
266 265 265 265 266 266 266 266 266 266 266 267 268 268 268 268 269 269 270 270 270 270 271 270 269 268 268 268 268 267 267 267 268 268 269 271 271 271 272 273 275 275 275 274 274 273 273 273 273 273 272 271 271 271 271 271 272 272 273 274 274 274 274 275 275 276 277 277 277 277 276 276 276 276 276 277 277 277 278 278 279 279 279 280 280 280
266 265 265 265 264 264 265 265 265 265 265 266 266 267 268 269 270 271 269 269 269 270 270 269 268 268 268 268 268 269 270 269 269 269 270 270 270 271 272 272 273 274 275 275 275 275 274 274 274 273 272 271 270 270 270 270 271 272 273 273 273 273 273 275 275 276 276 277 277 276 276 276 275 275 275 276 276 276 277 278 278 279 279 280 280 280
264 264 264 264 263 263 264 264 264 264 264 265 265 266 266 269 271 271 268 267 268 268 268 268 268 268 267 268 269 270 271 271 271 271 271 270 270 270 271 272 272 272 272 272 272 272 273 274 274 275 275 273 272 271 270 271 272 272 272 273 273 273 274 275 276 277 277 276 276 276 275 275 275 275 275 275 275 275 276 277 277 277 278 278 279 279
264 264 264 263 263 263 263 263 264 265 265 266 266 265 265 266 267 267 267 267 267 267 267 267 267 267 267 267 268 269 270 270 271 273 272 272 271 271 271 273 273 271 269 269 269 270 269 270 272 275 278 278 276 273 271 271 271 272 272 272 273 273 274 274 275 276 276 276 276 276 275 275 275 275 275 274 274 275 275 276 276 277 277 278 278 279
265 264 263 263 263 263 262 263 264 265 266 267 267 267 267 266 265 265 264 265 266 265 265 266 266 266 267 268 269 270 270 270 271 272 272 273 273 273 273 274 273 271 269 268 267 268 268 268 268 270 274 279 280 277 272 271 271 271 272 271 271 271 272 272 273 274 276 276 275 275 275 275 275 275 274 274 274 274 274 275 275 276 277 277 278 279
Wind_Speed
1 0 1 2 3 4 4 5 5 5 5 4 4 3 3 3 3 4 6 7 7 6 6 5 5 6 7 10 12 12 13 13 12 12 11 11 10 10 9 9 8 8 7 7 6 6 5 5 4 4 3 3 2 2 1 0 1 1 2 3 3 4 4 4 4 4 4 5 5 5 6 7 7 8 8 9 9 10 10 10 11 11 11 11 12 12
1 1 1 2 3 3 3 4 5 5 5 5 5 4 4 4 3 3 4 5 6 7 6 6 6 6 6 8 11 13 13 13 13 12 12 11 11 10 9 9 8 8 7 7 6 6 5 5 4 4 3 3 2 2 1 1 1 1 2 3 3 4 4 4 4 4 4 4 5 5 5 6 6 7 8 8 9 9 10 10 10 11 11 11 12 12
1 1 0 1 2 3 3 4 5 5 5 6 5 5 5 5 4 4 4 4 5 5 5 5 5 6 6 7 10 13 14 14 13 13 12 12 11 10 9 9 8 8 7 7 6 6 5 5 5 4 4 3 3 2 2 2 1 2 2 3 3 4 4 4 4 4 4 4 4 5 5 5 6 7 7 8 8 9 10 10 10 11 11 11 12 12
1 2 2 1 2 2 3 3 4 4 4 4 5 5 5 4 4 4 3 4 4 4 3 4 4 5 6 6 9 12 15 14 14 14 13 12 11 10 9 8 8 7 7 7 6 6 6 6 5 5 4 4 3 3 2 2 2 2 2 3 3 3 4 4 4 4 4 4 4 5 5 5 6 6 7 7 8 9 9 10 10 11 11 11 12 12
2 2 2 2 2 2 1 2 3 3 2 3 3 4 4 3 3 2 2 2 3 3 2 2 3 4 5 5 8 11 15 15 15 14 13 12 11 10 9 8 7 7 7 7 7 7 6 6 6 5 5 4 3 3 3 2 2 3 3 3 3 3 4 4 4 4 4 5 5 5 5 6 6 6 7 7 8 9 10 10 11 11 11 11 12 12
2 1 1 2 2 2 0 1 2 2 2 2 2 3 2 2 2 2 1 1 2 2 2 1 1 2 3 5 8 11 14 15 15 14 13 12 11 9 8 7 7 7 7 7 7 7 6 6 5 4 3 3 3 2 2 3 3 3 3 3 3 3 3 3 4 4 4 5 5 6 6 6 6 7 7 8 8 9 9 10 11 11 11 12 12 12
1 0 1 0 1 0 1 1 1 2 2 2 2 2 2 2 2 2 2 2 1 1 1 1 1 1 1 2 5 9 11 13 13 12 11 10 9 8 7 6 6 6 6 6 6 5 4 4 3 2 2 2 1 1 2 2 2 2 3 2 2 3 3 3 4 4 5 5 5 6 6 6 7 7 7 8 8 9 10 10 11 11 12 12 12 13
1 1 1 1 0 0 1 2 2 2 1 1 1 1 1 1 2 2 2 2 1 1 1 1 1 2 2 1 1 4 6 7 8 7 7 7 7 6 6 5 5 5 5 5 4 4 4 4 5 5 5 4 3 3 2 1 1 1 1 2 2 2 3 4 4 5 5 5 6 6 6 6 7 7 7 8 8 9 10 10 11 12 13 13 13 13
1 1 1 1 1 1 1 2 2 2 2 1 1 1 1 1 1 1 2 1 1 1 2 1 1 2 3 3 2 2 4 5 5 5 4 4 3 4 5 6 7 8 9 9 9 9 10 9 9 9 9 8 8 7 6 5 5 4 4 3 3 4 4 5 5 5 6 6 6 6 7 7 7 7 7 8 8 9 10 11 11 12 13 13 14 14
1 1 1 1 1 1 2 2 1 2 2 2 1 0 2 3 3 2 2 2 1 1 2 1 1 1 2 3 3 3 4 6 7 7 6 5 5 5 6 7 8 10 13 13 13 12 12 12 11 11 10 10 10 9 8 8 7 6 6 5 5 5 5 5 6 6 7 7 7 7 7 7 7 7 7 8 8 9 10 10 11 12 13 13 14 14
2 2 2 2 2 1 2 1 0 1 3 3 3 2 1 2 3 4 5 4 3 1 0 1 1 1 2 3 4 3 3 4 6 7 7 6 7 7 8 8 9 11 13 12 12 12 11 11 10 10 10 9 9 9 8 8 7 7 6 6 5 5 5 6 6 6 7 7 7 7 8 8 8 8 8 8 8 9 9 10 11 11 12 13 13 14
2 2 1 2 2 2 2 1 1 1 3 3 2 1 2 2 2 4 6 6 5 3 2 1 2 2 2 3 3 3 2 3 4 4 4 4 4 4 5 6 7 8 9 9 9 9 10 9 9 9 8 8 8 8 8 7 7 7 6 6 6 6 6 6 6 6 6 7 7 7 7 8 8 8 8 8 9 9 9 10 10 11 12 12 13 13
1 1 1 2 2 2 1 1 1 2 3 2 1 1 2 2 2 2 5 6 5 4 3 2 2 2 3 3 3 3 2 2 2 2 2 2 2 2 1 2 3 3 4 5 5 5 6 7 7 7 7 7 7 7 8 7 8 8 8 8 8 8 8 9 9 9 9 9 9 9 9 8 8 9 9 9 9 10 10 10 10 11 11 12 12 13
1 1 1 2 2 2 2 2 2 2 2 2 1 0 2 2 2 1 4 5 4 4 3 3 2 2 2 3 3 3 1 1 2 2 2 1 2 2 1 1 1 1 2 3 3 3 3 4 4 5 6 6 6 6 7 8 9 10 11 11 11 12 12 12 12 12 12 12 12 11 11 11 10 10 10 10 10 10 10 10 10 11 11 12 12 12
1 1 2 2 2 2 1 2 2 2 2 2 1 1 2 2 1 0 3 4 4 3 4 4 3 1 1 2 2 3 2 1 2 2 2 2 2 2 2 1 1 2 2 2 2 2 2 3 3 3 3 4 5 6 8 10 12 13 13 13 13 13 13 13 13 13 13 13 12 12 12 12 11 11 10 10 10 10 10 10 10 11 11 12 12 12
1 2 3 2 2 2 2 2 2 2 2 2 1 1 1 1 1 1 2 3 3 3 4 4 3 2 0 1 2 2 2 1 2 2 2 1 2 3 2 1 2 2 2 2 2 1 2 2 2 2 3 4 7 9 11 12 13 14 14 14 14 14 14 13 13 13 12 12 12 12 12 11 11 10 10 10 10 10 10 10 10 11 11 11 12 12
2 2 2 3 3 2 2 2 2 2 2 2 2 2 1 1 1 1 2 2 2 3 3 4 4 3 1 0 2 3 3 2 2 2 2 1 2 3 3 1 1 1 1 1 1 1 2 2 2 2 2 5 8 11 12 12 13 13 14 14 14 14 14 13 12 12 12 12 12 11 11 11 11 11 11 11 11 11 11 11 11 12 12 12 12 12
2 2 2 3 3 2 2 3 3 3 2 2 2 2 2 2 2 2 2 2 2 2 2 2 2 2 2 1 1 2 3 3 2 2 2 2 2 2 3 2 1 1 1 1 1 1 1 1 1 1 2 7 10 11 12 13 13 14 14 14 14 14 13 12 11 11 11 12 12 12 12 12 12 12 12 12 12 13 13 13 13 13 13 13 13 13
3 3 3 3 3 3 3 3 3 3 2 2 2 2 2 2 3 3 4 3 3 2 2 1 1 1 1 1 0 1 2 2 2 2 3 2 2 3 3 2 1 1 1 1 1 1 1 1 1 1 3 8 11 12 12 13 13 14 14 14 14 13 12 12 11 12 12 12 12 12 12 12 12 12 13 13 13 13 14 14 14 14 14 14 14 14
4 4 3 3 3 3 3 3 3 3 3 2 2 2 2 3 3 4 4 3 3 3 3 3 3 2 2 1 2 2 2 2 3 3 2 1 2 2 3 2 1 1 1 1 1 2 2 2 2 1 3 7 10 12 13 13 14 14 14 13 13 12 12 12 12 13 13 13 13 12 12 12 12 13 13 13 13 14 14 14 14 14 14 15 14 14
4 4 4 3 2 2 2 2 2 3 3 2 2 2 2 3 3 3 3 3 3 3 3 3 3 2 1 1 2 2 1 2 2 2 2 1 1 2 2 2 1 1 1 1 1 2 2 2 2 2 0 6 10 12 13 13 13 13 13 13 13 13 13 13 13 13 13 12 12 12 12 12 12 12 13 13 13 14 14 14 14 14 15 15 15 15
3 3 4 4 3 3 2 2 2 2 3 3 2 2 2 2 2 2 2 2 2 3 3 2 2 1 0 1 2 2 1 1 2 2 2 1 1 2 2 2 1 1 1 1 1 2 2 2 2 3 2 6 10 13 13 13 13 13 13 14 14 14 14 14 13 12 12 11 11 11 11 11 12 12 12 13 13 13 14 14 14 14 15 15 15 15
3 2 2 3 2 2 1 1 1 1 2 2 2 2 1 2 2 2 2 2 2 2 2 2 2 1 1 1 1 1 2 2 2 2 3 1 1 2 2 2 1 1 0 1 1 2 2 1 2 3 3 8 11 13 13 13 13 14 14 15 14 14 13 13 12 11 11 11 11 11 11 11 11 12 12 13 13 13 14 14 14 14 15 15 15 15
2 2 1 1 0 0 0 0 0 0 1 1 1 1 1 1 2 2 1 1 1 2 2 2 1 1 1 1 2 2 4 3 3 2 2 1 1 1 2 2 2 2 1 1 2 2 2 2 2 3 4 8 11 13 14 14 14 15 15 14 14 13 12 11 11 10 10 10 10 11 11 11 11 12 12 12 13 13 14 14 14 15 15 15 14 14
2 2 1 1 2 2 1 1 1 1 1 1 1 1 1 2 2 2 1 1 1 1 1 1 2 2 1 2 2 3 3 4 3 2 1 1 1 1 2 2 2 2 2 2 2 3 2 2 3 3 4 6 9 12 14 15 15 15 14 13 13 12 11 11 10 10 10 10 10 11 11 11 11 12 12 12 13 13 14 14 14 15 15 14 14 14
6 6 6 7 8 8 7 6 6 5 3 1 1 1 1 2 2 1 1 1 1 1 2 2 2 2 1 2 2 2 3 3 4 3 1 0 0 0 1 2 2 2 3 2 3 3 3 2 2 3 3 4 7 10 13 14 14 14 13 12 12 11 11 11 10 10 10 10 11 11 11 11 12 12 12 13 13 13 14 14 14 15 14 14 13 13
11 11 12 13 12 12 11 11 12 12 12 9 7 5 3 2 2 2 2 2 2 1 2 2 2 1 1 1 2 2 2 3 3 3 2 0 1 1 1 2 2 3 3 2 2 3 3 2 2 2 3 3 4 7 12 13 14 13 13 12 12 11 11 11 10 10 11 11 11 11 11 12 12 12 12 13 13 13 14 14 14 14 13 12 10 9
13 13 14 14 14 14 14 15 16 17 17 17 15 12 7 4 3 3 2 2 2 1 1 2 1 1 1 1 1 1 2 3 3 3 2 1 1 1 1 2 2 3 2 2 2 2 3 2 2 2 3 3 3 5 9 12 12 12 12 12 12 11 11 11 11 11 11 11 11 12 12 12 12 12 13 13 13 13 14 14 14 13 11 9 6 5
13 14 14 14 14 14 15 15 16 18 19 19 18 15 10 7 5 4 3 2 2 2 2 2 1 1 1 1 1 1 2 2 3 3 2 1 1 1 2 2 3 3 2 2 2 2 2 2 1 2 2 3 3 4 6 8 9 9 9 10 10 10 11 11 11 11 11 12 12 12 12 12 13 13 13 13 13 13 14 14 13 11 8 6 5 4
10 11 11 12 12 12 12 12 13 15 17 18 17 15 11 7 5 4 3 3 3 3 3 2 2 2 1 1 1 1 2 2 3 4 3 1 1 1 2 2 3 3 2 2 2 2 2 2 2 2 2 3 3 4 4 5 5 5 5 7 8 9 10 11 11 11 12 12 12 12 13 13 13 13 13 13 13 14 14 14 12 8 5 4 4 4
7 7 7 8 8 8 8 8 9 11 13 14 14 12 9 7 6 5 4 4 4 4 3 3 3 2 1 1 1 1 1 2 3 4 3 2 1 1 2 2 2 2 2 1 1 1 2 2 2 2 2 3 3 4 4 4 4 4 3 4 5 6 9 10 10 11 11 11 12 12 13 13 13 13 13 13 13 13 13 14 12 8 4 4 4 4
6 6 6 5 5 6 6 6 7 7 8 9 9 8 8 7 6 5 5 5 4 4 3 3 3 3 2 2 1 1 1 1 3 5 4 2 1 1 1 1 1 2 2 1 1 1 1 2 2 2 3 3 3 3 4 4 4 3 4 3 3 4 7 8 8 9 9 10 11 11 12 12 12 13 13 13 13 13 13 13 12 9 5 4 4 4
5 5 5 5 5 5 6 6 6 6 6 6 6 6 6 6 6 6 5 5 4 4 3 3 3 3 2 2 2 1 1 1 3 5 4 2 1 1 1 1 1 1 2 1 1 1 1 1 2 2 3 3 3 3 3 3 3 3 3 3 2 3 5 5 6 6 6 7 8 9 10 11 11 12 12 12 13 13 13 14 13 11 8 5 4 4
6 6 5 5 5 5 6 6 6 6 6 5 5 5 5 5 5 5 5 4 4 4 3 3 3 3 2 2 2 2 1 1 3 5 5 2 1 1 0 0 0 0 1 1 1 1 0 1 1 2 3 3 2 2 2 3 3 2 2 1 1 2 3 3 3 4 4 5 4 5 6 7 8 9 10 11 12 12 13 13 13 13 11 7 5 4
5 6 6 5 5 5 6 6 6 6 5 5 5 5 4 4 4 4 4 4 4 3 3 3 2 2 2 2 1 1 1 2 4 5 5 2 1 1 1 1 1 1 1 0 0 1 1 1 1 2 2 3 2 2 2 2 2 2 2 1 1 2 2 2 3 3 3 3 3 3 3 4 4 5 7 9 11 12 13 13 13 13 13 11 9 6
5 6 6 5 5 5 6 6 6 5 5 4 4 4 4 4 4 4 3 3 4 4 4 3 2 2 1 1 1 0 1 2 3 4 4 1 1 2 1 1 2 2 2 1 1 1 0 1 1 1 1 2 2 2 2 2 2 2 2 2 2 2 3 3 2 2 2 2 3 3 3 3 3 4 5 8 11 12 13 13 13 13 13 13 12 10
5 5 5 5 5 5 5 5 5 5 4 4 4 4 4 3 3 3 3 3 3 4 4 4 4 3 3 1 1 1 1 2 3 3 3 1 1 1 1 1 2 2 2 2 1 1 1 1 1 1 1 1 2 2 2 2 2 2 2 2 2 3 3 3 3 2 1 2 3 3 4 4 4 4 5 8 10 10 11 12 12 12 13 13 13 12
5 5 5 4 4 4 4 4 4 4 4 3 3 3 4 3 3 3 3 3 4 4 4 4 4 4 5 4 2 1 1 1 2 2 2 1 0 1 1 1 1 2 2 2 2 1 1 1 1 1 1 2 2 2 2 2 2 2 2 2 3 3 3 3 2 1 1 2 3 4 5 4 4 4 5 6 6 5 6 6 7 9 10 11 11 12
5 4 4 4 4 4 3 3 3 3 3 3 3 3 3 3 4 4 3 3 3 3 3 3 3 3 4 5 5 4 3 2 2 2 2 1 1 0 0 1 1 2 2 1 2 2 2 2 2 2 2 2 2 2 2 1 2 2 3 3 3 3 3 2 2 1 1 2 3 5 5 4 4 4 4 4 4 4 4 4 5 6 6 6 7 8
4 4 4 4 4 3 3 3 3 3 3 3 4 4 4 3 3 3 4 3 3 3 3 3 3 3 3 4 4 5 5 4 3 3 2 1 1 0 0 0 1 2 2 2 1 1 1 2 2 3 3 3 3 3 2 2 2 2 3 3 2 2 2 1 1 1 1 2 3 4 4 4 4 4 4 4 4 4 4 4 4 5 5 4 4 4
4 3 3 3 3 3 4 3 3 3 3 3 3 4 4 3 3 3 4 4 4 3 3 4 4 4 3 3 4 4 4 4 4 4 2 2 1 1 1 1 1 2 2 2 2 2 1 2 2 3 3 3 4 4 4 3 4 5 5 4 3 2 2 2 2 2 2 3 3 4 5 5 5 5 4 4 4 4 4 4 4 4 4 3 2 2
5 3 2 2 2 3 3 3 3 4 4 3 3 3 4 3 3 3 3 3 3 3 3 3 4 4 4 4 4 5 5 5 5 4 3 2 1 1 1 1 1 1 1 1 2 2 2 2 2 2 3 3 3 3 4 4 4 4 4 3 3 3 4 3 2 2 2 4 4 5 6 5 5 4 5 4 4 4 4 4 4 5 4 3 2 2
3 2 2 2 2 2 3 3 4 4 4 3 3 3 3 3 3 3 2 2 3 3 3 3 3 3 3 3 3 4 5 5 5 5 4 2 1 0 0 1 1 1 1 1 1 2 2 2 2 2 2 2 3 3 4 4 4 3 3 3 3 3 2 2 2 2 3 4 5 5 5 4 4 4 4 4 4 4 4 4 5 6 5 4 3 2
2 2 2 2 2 2 3 3 3 3 3 3 3 3 3 3 3 3 2 2 2 2 2 2 2 2 2 2 3 3 4 5 5 5 5 4 2 1 0 1 1 0 1 1 0 1 2 2 2 2 2 2 2 2 3 3 3 3 3 3 2 2 2 3 3 3 4 4 4 4 4 4 4 4 4 4 4 3 3 3 3 3 4 3 3 3
2 2 2 3 3 3 3 3 3 3 3 3 3 3 4 4 3 3 3 2 2 2 2 1 2 2 2 2 2 2 3 4 4 4 4 5 5 4 2 1 1 0 1 1 1 1 1 1 2 3 2 2 2 2 3 3 3 3 3 3 3 3 4 4 3 4 4 4 4 4 4 4 4 4 3 3 3 3 3 4 4 4 4 3 3 4
2 2 3 3 3 3 4 4 3 3 3 3 3 3 3 3 3 3 4 3 3 3 2 1 1 1 1 1 2 2 2 3 3 3 3 4 5 4 3 2 2 1 1 1 2 2 2 3 3 2 2 2 2 2 3 3 2 3 3 3 3 3 4 4 4 4 4 4 4 4 4 3 3 3 4 4 4 4 4 4 4 4 4 4 4 4
3 3 3 3 3 3 3 3 3 3 3 3 3 3 3 3 3 3 3 4 3 3 3 2 1 1 1 1 1 1 1 2 3 3 3 3 4 4 3 3 3 2 1 1 2 2 3 3 3 3 2 1 2 3 3 3 2 3 3 3 3 3 3 3 4 4 4 3 3 2 3 3 4 4 4 5 5 5 4 4 4 4 4 4 4 4
3 3 3 3 3 3 3 3 3 3 3 3 3 3 3 3 3 4 3 3 3 3 3 3 2 2 2 1 1 1 1 1 2 2 3 3 3 3 3 3 3 3 2 2 2 2 3 3 3 3 3 3 2 3 3 3 3 3 3 3 3 3 3 3 3 3 3 2 2 2 3 3 4 4 5 5 5 5 5 5 5 4 4 4 4 4
2 3 3 3 3 3 3 3 3 3 3 3 3 3 3 4 5 5 2 2 2 3 3 3 3 3 2 2 2 2 2 2 2 2 2 2 2 2 2 2 2 2 3 3 3 3 3 3 3 4 4 4 4 3 3 3 3 3 2 2 2 2 3 3 3 2 2 3 3 4 4 3 3 3 4 5 6 6 6 5 5 4 4 4 4 4
2 2 2 2 2 2 2 2 3 3 3 3 3 2 2 3 3 3 2 2 2 2 2 2 3 3 3 3 3 3 2 2 2 2 2 2 2 2 2 2 2 2 3 3 3 3 4 4 4 3 4 4 4 4 3 3 3 2 2 2 2 2 2 2 2 3 3 4 4 5 5 4 3 3 3 4 5 6 6 6 5 5 4 4 4 5
2 2 2 2 2 2 2 2 2 2 3 3 3 3 3 3 3 3 2 2 2 2 2 2 2 2 3 3 3 3 3 3 2 2 2 2 2 2 2 2 2 2 2 2 3 3 3 3 3 3 4 5 3 1 2 2 1 2 2 2 2 2 1 2 2 3 4 4 4 4 4 4 4 3 3 3 5 6 6 6 5 5 4 4 5 5
Wind_Direction
265 294 99 136 141 152 183 192 189 184 182 179 176 172 171 177 180 175 165 158 156 157 162 167 171 174 174 177 178 179 180 180 179 179 179 179 178 178 177 176 175 173 171 169 167 166 166 165 163 161 159 157 155 153 149 142 351 342 342 342 343 344 347 351 357 2 4 5 7 7 6 6 7 6 6 5 3 0 358 355 353 350 347 345 343 341
281 341 59 134 143 153 178 189 192 190 184 180 178 175 169 174 182 185 174 164 161 161 165 169 173 177 181 183 184 183 183 182 181 181 181 182 182 182 181 180 178 175 173 171 170 171 171 171 171 170 169 170 171 172 174 194 246 296 312 321 326 328 332 336 342 347 352 356 358 359 1 1 2 2 2 1 359 357 355 352 350 348 347 345 344 343
248 267 226 152 152 157 170 185 194 197 190 182 178 174 168 172 178 183 181 174 169 166 167 170 174 180 186 190 189 188 186 184 183 182 182 184 184 185 185 183 180 177 175 174 174 175 177 177 177 176 177 178 180 182 186 200 230 263 285 299 308 313 317 322 326 332 336 341 344 347 349 351 352 354 354 354 353 352 350 349 348 347 346 345 345 344
212 213 208 181 172 171 170 176 186 194 196 181 172 166 163 172 180 183 181 174 171 170 171 172 176 181 188 193 193 190 187 185 183 183 183 184 185 186 186 184 181 179 178 179 180 181 183 183 183 183 182 182 184 187 192 206 226 248 266 278 289 296 303 307 312 316 321 325 327 329 332 335 338 340 342 343 344 345 345 345 345 345 344 344 344 343
215 205 191 177 182 191 173 160 165 172 173 161 154 153 160 171 177 178 173 165 166 170 175 177 184 187 189 190 190 189 186 184 183 183 183 184 184 184 184 183 182 182 184 185 187 188 188 189 188 186 184 184 185 190 198 213 228 241 252 260 271 281 290 297 303 306 309 311 312 314 317 320 322 325 328 331 335 338 340 341 342 342 342 342 342 342
229 209 175 175 185 192 137 110 129 139 141 132 129 134 142 148 149 144 140 152 163 168 166 173 204 211 200 187 184 183 183 182 182 182 181 180 180 179 179 180 182 186 189 192 193 194 193 192 189 185 180 182 186 193 207 221 232 241 247 253 260 271 282 292 297 301 302 303 303 304 305 308 310 312 316 320 325 329 333 335 337 338 339 340 340 339
246 290 73 156 192 226 348 10 56 104 129 126 122 116 120 117 115 115 121 139 150 145 121 66 341 307 267 193 177 175 176 177 177 176 174 170 168 167 169 173 178 183 186 192 193 191 184 181 166 147 139 141 152 176 216 229 240 247 252 259 267 276 288 296 298 299 298 296 296 296 296 298 300 303 306 311 315 320 324 328 331 334 336 337 337 337
239 2 48 57 53 9 321 336 359 31 75 115 132 134 122 111 100 93 86 87 93 95 85 48 3 338 329 342 137 150 157 161 160 157 157 153 150 150 153 154 153 151 145 145 140 130 116 106 99 93 88 85 80 77 74 65 27 332 313 311 309 310 315 312 308 304 299 294 292 290 289 290 292 295 299 304 308 314 318 323 327 330 333 334 334 334
124 59 48 72 109 135 200 285 329 7 45 71 150 184 177 155 131 104 85 76 59 49 47 43 9 342 334 345 17 82 104 109 109 111 118 121 127 134 137 129 123 115 108 104 101 97 93 90 87 84 82 79 76 72 68 61 52 39 24 11 358 347 339 330 321 312 304 298 293 289 287 287 288 290 294 299 304 310 315 320 324 327 329 330 331 331
73 59 43 45 79 127 160 213 285 353 49 56 53 225 203 185 172 160 155 171 164 31 19 26 35 357 333 339 354 34 79 86 89 93 101 103 113 119 115 110 107 103 98 97 94 92 89 87 85 82 79 77 74 71 67 60 52 42 31 20 9 358 348 338 327 318 310 304 298 294 291 290 290 291 295 298 304 309 314 318 322 324 326 327 327 328
47 43 41 31 30 51 100 156 246 1 47 52 35 6 296 197 179 173 172 178 180 179 3 20 31 28 354 344 348 4 48 74 80 81 89 93 100 104 101 99 98 97 95 93 92 89 87 85 82 79 77 73 70 66 63 57 50 42 32 23 15 5 353 345 336 328 321 316 311 307 304 301 300 300 301 304 308 313 317 320 322 323 323 324 324 324
39 33 45 45 40 38 49 47 30 32 51 53 38 348 304 280 200 176 173 174 174 174 173 68 36 29 20 358 346 349 26 71 80 77 70 70 74 81 89 91 91 91 91 88 86 84 83 81 79 75 72 68 64 62 60 56 52 47 40 36 30 24 16 10 2 356 351 346 341 335 330 325 322 320 317 319 321 323 325 325 324 323 322 322 322 322
34 32 58 62 57 48 41 36 38 45 56 62 65 262 272 284 250 187 170 170 166 160 149 114 64 36 28 11 349 338 1 68 82 81 66 43 19 18 56 76 81 80 85 81 76 72 74 74 73 70 67 64 61 60 60 62 62 60 57 55 51 47 42 38 34 30 26 22 18 13 7 1 355 350 345 342 340 338 335 332 329 325 323 322 322 321
33 37 66 69 62 52 41 47 65 78 78 75 71 280 265 272 264 186 153 157 152 140 125 110 85 44 19 8 351 340 337 55 74 69 56 29 354 338 341 48 62 60 72 70 62 53 54 61 64 64 60 59 60 63 67 70 72 72 71 68 65 60 56 52 49 45 42 40 36 33 30 24 18 12 6 0 355 349 342 337 332 328 326 325 324 324
59 69 81 80 72 61 46 55 67 76 80 73 55 309 279 285 298 71 124 142 139 129 120 113 100 69 4 352 344 340 339 54 76 71 56 20 347 336 340 28 38 36 44 57 52 38 33 50 55 53 48 57 68 78 83 83 82 81 79 75 71 67 62 58 54 51 48 45 41 38 35 30 25 19 12 6 358 351 344 338 334 331 330 330 329 328
83 92 102 97 85 71 53 56 67 72 70 63 50 13 335 335 347 21 85 117 125 126 130 132 132 135 246 320 337 345 353 39 69 73 71 25 346 338 347 25 40 33 29 44 40 19 17 32 40 42 43 73 85 90 93 92 89 86 83 79 74 69 64 60 56 51 48 44 40 37 33 28 23 17 11 4 357 350 344 340 337 336 335 335 334 334
78 86 97 96 88 76 55 51 54 58 55 46 40 37 43 30 22 24 46 78 102 126 148 152 155 160 175 281 341 352 2 25 50 67 69 26 343 335 346 25 55 51 21 27 22 15 19 25 26 31 47 90 95 97 97 95 91 87 83 78 73 68 63 59 55 51 46 42 38 33 29 24 19 13 8 1 356 351 347 344 342 340 339 339 339 338
58 67 76 86 84 75 55 46 43 39 34 31 31 36 45 46 46 45 45 50 65 100 135 147 154 154 147 155 328 343 359 25 46 56 50 16 337 327 341 14 55 73 42 15 9 13 25 23 20 45 104 106 104 102 99 95 90 84 79 74 70 66 62 58 53 49 44 40 35 31 26 21 16 12 7 3 359 356 352 349 347 345 343 341 340 340
47 52 60 73 79 74 61 46 37 30 22 14 13 22 40 43 51 54 53 49 46 48 55 60 62 69 87 100 343 323 347 38 55 55 43 5 334 326 342 358 27 59 40 15 8 7 9 1 341 13 113 109 106 101 95 90 84 79 75 72 69 65 60 55 50 46 41 37 32 28 23 19 15 11 8 5 2 359 356 353 351 348 345 343 342 340
40 39 37 50 70 79 73 56 41 30 19 5 5 18 36 43 51 57 62 61 60 57 59 58 50 41 35 5 321 313 340 45 63 64 52 359 320 317 335 345 10 45 26 1 354 359 5 352 346 32 109 104 99 94 87 82 78 75 73 70 66 62 57 51 45 41 36 32 28 24 20 17 13 10 7 4 2 360 357 354 352 349 346 344 342 340
42 35 25 24 38 64 75 63 49 36 26 17 21 32 40 46 52 56 60 63 64 64 63 62 55 45 20 332 314 317 349 55 75 80 67 13 319 307 323 336 10 51 38 349 348 357 7 355 335 321 286 97 92 87 81 78 75 73 70 66 61 56 51 45 41 36 32 28 24 21 18 14 11 8 5 2 0 358 355 353 350 348 345 344 342 340
49 37 22 21 27 42 59 63 55 46 41 37 39 45 49 52 58 64 65 68 72 74 74 75 77 76 265 275 291 315 5 70 101 107 93 45 313 298 318 328 1 51 68 342 341 354 7 353 328 319 336 82 86 84 80 76 73 69 64 59 54 49 45 40 36 32 27 24 20 17 14 11 8 5 2 359 357 354 352 350 348 346 344 343 341 340
56 47 31 29 31 36 37 36 43 51 53 59 63 66 66 68 74 79 82 88 96 105 113 130 149 170 200 237 299 1 20 37 77 103 107 131 259 287 321 325 352 25 27 328 337 351 1 353 333 339 16 70 78 79 77 72 66 60 56 52 47 43 39 35 30 26 21 18 15 12 10 7 4 1 358 356 353 351 349 347 345 343 342 341 341 339
65 61 54 51 40 8 265 286 302 44 84 86 96 104 112 105 102 102 103 112 122 129 137 145 142 129 82 40 34 32 25 23 35 68 109 164 225 281 321 335 354 4 345 333 341 352 356 1 353 355 9 56 67 71 70 65 59 54 50 46 42 37 32 28 23 19 16 13 10 7 5 2 360 357 355 352 350 348 346 344 343 341 340 340 340 338
52 50 49 46 44 47 56 39 31 45 142 170 165 154 146 134 122 110 103 98 98 100 96 83 71 56 32 31 34 34 25 22 26 36 75 164 210 297 323 346 1 1 337 334 347 358 2 3 358 359 5 34 51 59 61 58 54 50 45 41 36 30 25 21 16 13 10 8 5 3 0 358 356 353 351 349 347 345 343 341 340 339 339 339 338 337
46 44 43 43 42 41 43 42 42 42 44 67 128 150 149 131 113 93 66 50 51 63 70 67 60 50 32 37 37 30 14 23 28 29 9 120 127 30 333 354 6 5 342 336 349 359 1 359 354 354 359 12 34 45 50 50 47 43 38 33 28 22 17 13 10 8 6 3 1 359 356 354 352 350 348 346 344 343 341 339 338 338 338 338 337 335
45 46 46 45 43 42 42 47 48 46 43 44 47 53 63 77 85 77 52 34 30 52 86 91 84 71 50 56 52 33 5 18 24 22 353 20 97 64 347 354 3 4 350 338 341 348 352 352 348 347 351 348 6 29 41 41 39 34 28 24 19 15 10 7 5 3 2 360 357 355 352 350 348 347 345 343 342 340 339 337 337 337 337 337 335 331
46 47 47 46 45 44 45 50 51 50 47 44 43 43 43 49 57 55 37 10 5 31 93 107 113 108 97 84 75 47 12 23 19 7 336 12 73 58 348 349 2 8 358 338 330 332 345 347 340 331 328 335 357 24 35 35 32 28 22 17 12 8 5 3 1 0 359 356 354 352 349 347 346 344 343 342 340 338 337 336 335 336 336 335 330 322
46 48 48 46 46 45 46 48 50 50 49 46 44 42 40 43 48 46 24 358 3 35 70 77 85 94 105 96 91 65 38 30 13 357 335 25 57 35 344 356 8 13 9 350 336 331 335 334 325 315 310 334 2 25 31 30 28 24 18 11 7 3 1 360 359 357 355 353 350 348 346 345 343 342 341 340 338 337 336 335 335 335 335 331 324 316
43 45 44 43 42 42 43 44 46 47 47 46 45 44 42 44 44 39 18 11 23 43 58 53 49 50 70 86 86 68 37 18 5 359 356 35 48 19 355 6 12 14 18 18 1 336 318 315 309 308 308 345 10 25 24 23 22 18 13 7 3 0 358 357 356 354 352 349 347 344 343 341 341 340 339 338 337 336 335 335 335 335 332 326 320 315
45 46 43 39 38 38 40 43 44 44 44 43 43 43 41 42 41 35 24 25 32 43 51 47 39 33 31 70 94 86 45 357 359 6 19 44 53 29 13 15 7 3 16 60 65 332 301 306 310 317 329 357 12 18 13 11 9 8 4 4 0 356 353 352 352 350 347 344 342 340 338 338 337 337 336 335 335 334 334 335 335 335 331 326 321 315
52 51 48 43 41 41 42 43 43 42 41 40 39 37 37 38 38 36 31 31 34 41 49 48 43 35 25 40 66 86 76 337 356 9 31 52 63 49 35 33 1 344 356 72 116 155 243 290 307 321 344 358 3 3 359 0 0 359 359 0 354 346 344 346 345 344 339 337 336 334 333 333 333 333 333 333 333 332 333 333 335 335 333 327 320 314
57 53 47 45 45 45 44 43 43 43 42 39 36 35 33 34 35 36 36 34 34 37 43 46 47 43 35 39 48 56 60 327 355 10 30 57 76 66 53 59 11 338 341 7 56 118 186 265 299 319 336 345 349 347 345 347 347 349 356 356 344 331 333 336 336 333 327 327 327 326 327 327 328 328 329 330 330 330 331 332 333 333 332 325 318 314
56 52 47 45 45 45 44 43 43 43 41 37 35 32 31 30 31 32 34 34 35 36 40 41 43 44 44 46 44 36 9 330 347 0 19 59 97 118 105 111 129 345 358 1 7 13 338 296 306 317 323 327 331 332 329 326 327 331 347 346 324 311 314 321 320 315 312 315 316 316 318 320 322 324 326 327 327 328 329 330 331 331 330 326 320 315
53 49 44 42 42 43 41 40 40 40 38 34 30 27 27 28 28 28 29 29 31 34 39 40 44 49 54 62 54 28 348 317 332 346 3 41 112 135 138 172 179 166 126 104 30 11 335 301 293 294 308 315 319 318 310 305 309 317 326 313 294 283 287 293 299 301 304 309 309 307 309 309 314 319 321 323 324 325 327 328 329 329 328 326 324 321
52 48 42 40 40 40 41 38 37 35 32 26 22 20 20 22 23 21 21 20 21 25 29 32 37 46 68 91 94 65 306 293 316 334 352 18 110 135 148 196 190 168 145 154 161 168 238 277 275 273 285 300 307 308 305 306 316 325 321 308 293 281 277 276 279 287 300 308 308 309 310 313 315 317 316 320 322 323 325 326 327 327 326 326 325 323
54 49 43 41 39 40 40 37 33 30 25 18 13 10 11 13 13 12 11 11 12 15 17 18 19 21 27 60 118 196 248 275 302 324 343 356 120 145 170 210 201 182 165 176 195 209 216 260 276 276 266 258 269 283 296 312 326 328 312 296 285 279 277 277 279 283 293 304 309 314 318 321 321 317 313 317 319 321 323 324 324 324 324 324 324 323
53 49 45 41 39 38 38 34 30 24 18 13 7 4 2 4 5 5 4 4 6 9 10 10 7 4 4 7 6 343 268 295 310 318 333 337 8 161 201 257 248 232 210 220 232 243 243 262 275 283 275 253 255 262 278 298 310 305 286 277 272 269 271 276 281 288 294 307 316 322 324 322 318 314 309 313 316 318 319 319 319 320 321 321 321 322
52 48 42 40 38 36 34 30 25 17 10 9 7 6 5 3 3 4 2 1 3 6 8 6 0 354 350 350 353 355 358 348 336 330 333 336 348 44 139 283 283 281 276 263 252 246 249 257 264 269 274 275 275 275 279 281 280 278 279 281 279 274 267 269 280 292 303 321 326 326 323 317 312 307 305 308 312 313 314 312 313 315 317 315 317 320
54 47 40 37 34 31 28 22 14 6 0 5 12 17 16 11 5 0 358 359 0 3 6 5 0 353 346 347 350 353 355 350 345 342 340 341 348 3 58 266 280 288 296 289 275 257 245 251 257 264 269 276 281 281 277 266 259 262 277 284 283 278 274 285 295 307 322 326 325 322 315 311 307 305 304 307 308 309 308 306 307 308 310 309 311 317
54 45 34 28 26 25 25 13 5 4 9 15 21 24 23 18 9 2 357 357 357 359 2 8 6 359 352 349 346 345 346 343 343 343 339 337 338 339 341 306 296 298 307 310 306 292 263 259 261 264 265 269 273 275 274 268 267 272 280 282 285 290 299 307 312 317 325 321 315 311 309 307 307 307 306 306 303 298 294 293 295 298 302 303 306 316
54 46 26 13 8 5 0 358 4 12 21 26 29 28 23 17 11 4 0 357 354 354 1 12 13 8 359 348 342 339 339 338 338 338 335 334 337 344 344 317 310 312 328 333 325 315 303 296 290 283 280 282 279 276 274 274 276 281 286 294 307 314 314 308 306 312 323 314 309 306 306 305 304 304 303 302 297 292 291 289 295 302 309 309 308 307
45 33 8 352 339 336 344 359 9 15 18 22 22 18 12 8 6 5 7 358 350 348 357 13 23 24 12 351 339 333 331 327 328 329 332 329 318 190 235 283 293 308 11 20 345 319 316 318 307 295 296 301 296 289 286 288 291 296 300 312 324 329 317 303 303 307 310 306 302 300 299 299 299 298 297 296 294 293 295 300 307 312 318 315 310 305
30 13 353 343 341 348 4 10 10 11 15 17 14 6 356 354 358 6 15 2 350 348 358 17 35 41 32 358 334 323 321 321 323 326 327 332 334 326 206 255 264 252 102 110 115 300 311 312 296 280 279 288 287 285 283 286 288 291 294 306 311 304 281 289 299 306 305 301 298 296 295 298 300 301 301 301 303 306 309 312 315 316 318 314 310 306
14 7 3 3 8 13 18 10 5 3 10 14 9 359 348 348 357 10 18 4 353 349 348 17 41 43 23 346 323 317 320 322 323 325 324 329 334 339 338 312 283 226 143 157 173 191 225 265 272 273 275 274 267 261 262 267 273 281 285 291 291 281 268 277 284 291 292 293 293 295 298 304 311 317 318 318 318 318 318 318 317 314 313 313 310 306
24 18 12 11 14 18 15 6 1 0 3 3 358 350 342 344 354 10 17 10 359 347 336 3 45 52 15 318 305 311 323 324 322 321 321 323 326 330 329 316 302 281 228 212 202 199 197 216 234 252 275 286 278 264 250 249 258 269 278 284 285 284 281 281 278 276 275 280 286 294 307 324 336 337 330 324 320 315 312 312 311 311 310 309 307 303
25 21 14 11 10 10 7 5 6 7 4 355 345 336 332 338 353 11 19 11 359 347 340 353 17 33 326 287 283 291 318 317 315 314 314 313 315 316 315 313 309 304 284 265 244 230 222 220 218 217 220 251 272 273 264 251 248 254 267 272 276 279 281 279 275 272 270 273 287 310 336 350 348 340 327 320 315 311 309 308 306 304 304 304 303 302
24 19 12 9 8 6 3 5 8 9 2 346 332 324 325 340 359 12 18 4 354 350 350 351 349 341 320 297 284 288 312 306 302 303 304 302 302 305 310 311 313 317 317 313 302 285 266 248 231 215 198 201 223 249 265 260 254 251 255 263 268 272 272 272 272 273 277 294 324 345 355 353 343 331 322 317 313 309 308 307 305 302 298 298 300 302
26 19 12 10 10 8 1 0 2 2 355 338 327 320 323 346 3 12 11 357 353 354 355 349 343 334 323 308 300 301 314 309 302 297 295 287 289 295 304 309 318 329 338 336 331 323 314 295 267 237 209 199 203 219 246 256 260 260 262 260 257 258 264 273 285 302 325 334 339 341 343 335 326 317 316 312 309 306 306 305 303 301 298 299 301 302
23 20 15 17 14 6 353 353 355 354 346 335 328 327 331 351 2 4 359 355 353 352 349 341 337 330 318 307 302 303 306 301 301 303 305 290 285 291 298 308 321 339 347 344 342 338 336 328 313 285 244 225 210 204 215 244 266 278 282 269 261 259 272 288 303 322 334 332 331 329 326 321 316 313 314 308 305 304 303 303 302 302 304 306 305 304
15 13 13 14 6 354 342 342 346 346 342 341 344 349 358 2 358 353 350 352 350 343 329 327 324 321 311 308 307 307 307 300 300 303 307 305 301 295 294 307 321 335 344 341 339 338 340 339 333 320 301 288 277 207 169 200 247 292 304 292 283 280 285 292 302 314 324 323 320 317 316 313 311 310 310 308 305 303 303 303 303 303 306 308 307 304